Jean Philippe Monclin

Jean Philippe Monclin

Statistiques 2026

  • Courses courues : 76
  • Nb de victoires : 17
  • Nb de places : 35
  • Écart gagnant : 2
  • Réussite à la gagne : 22%
  • Réussite à la place : 46%
Musique : 0a 2a 1a 0a 4a 0a 4a 1a 6a Da 3a Da 3a 1a 1a 3a 5a 2a
DateRangCatégorieAlloc.Dist.HippodromeChevalRed. KmSpé.
01/03/19 D Trot 16 000€ 2 875m Laval Fierte du Biwetz Attelé
01/03/19 1 Trot 16 000€ 2 225m Laval Good Boy Ligneries 1'16"8 Attelé
07/03/19 Dist Trot 24 000€ 2 875m Laval Danova du Chene Attelé
07/03/19 5 Trot 20 000€ 2 875m Laval Eshalla 1'16"8 Attelé
07/03/19 D Trot 16 000€ 2 875m Laval First de Tess Attelé
07/03/19 4 Trot 16 000€ 2 225m Laval Gonna Fly 1'19"9 Attelé
13/03/19 D Trot 16 000€ 2 225m Laval Galtika's Fella Attelé lire

A rapidement pris le galop.

13/03/19 2 Trot 20 000€ 2 875m Laval Euripide Ludois 1'15"9 Attelé lire

Après avoir attendu au sein du peloton, a très bien terminé.

13/03/19 1 Trot 25 000€ 2 875m Laval Charme de Star 1'15"7 Attelé lire

Principal animateur, s'est montré le plus fort dans la phase finale.

13/03/19 2 Trot 21 000€ 2 875m Laval Fripon des Sables 1'17"4 Attelé lire

Rapidement à la pointe du combat, a très bien tenu sa partie jusqu'au bout.

30/03/19 4 Trot 33 000€ 2 900m Laval Delloro Vedaquais 1'13"8 Attelé
30/03/19 3 Trot 18 000€ 2 875m Laval Fuego d'Iraty 1'14"5 Attelé
30/03/19 8 Trot 16 000€ 2 225m Laval Gold du Val 1'19"9 Attelé
25/04/19 1 Trot 16 000€ 2 875m Laval Gu d'heripre 1'17"2 Attelé
25/04/19 4 Trot 18 000€ 2 875m Laval Felicitations 1'16"2 Attelé
03/05/19 5 Trot 24 000€ 2 875m Laval Diable Ludois 1'16"5 Attelé
03/05/19 D Trot 20 000€ 2 875m Laval Elegant Hope Attelé
03/05/19 3 Trot 29 000€ 2 875m Laval Charme de Star 1'14"7 Attelé
03/05/19 D Trot 18 000€ 2 875m Laval Funny Joke Attelé
05/06/19 D Trot 24 000€ 2 900m Laval Defi Calendes Attelé lire

A été sanctionné dans le tournant final alors qu'il trottait en queue de peloton.

14/06/19 5 Trot 24 000€ 2 875m Laval Daddy Cut 1'14"5 Attelé
14/06/19 5 Trot 27 000€ 2 875m Laval D'Artagnan France 1'15"9 Attelé
14/06/19 0 Trot 24 000€ 2 875m Laval Elise Attelé
14/06/19 7 Trot 18 000€ 2 875m Laval Feu de Moutiers 1'17"3 Attelé
27/06/19 D Trot 21 000€ 2 875m Laval Fripon des Sables Attelé
27/06/19 3 Trot 18 000€ 2 875m Laval Guest Of Quick 1'17"3 Attelé
03/09/21 2 Trot 18 000€ 2 850m Laval Helvetika 1'15"5 Attelé
03/09/21 2 Trot 36 000€ 2 850m Laval Da Vinci Bond 1'15"1 Attelé
03/09/21 6 Trot 20 000€ 2 850m Laval Gustavia 1'14"9 Attelé
03/09/21 7 Trot 18 000€ 2 850m Laval Hussard d'Occagnes 1'16"3 Attelé
03/09/21 D Trot 18 000€ 2 850m Laval Ideal de Larre Attelé
20/09/21 9 Trot 18 000€ 2 875m Laval Halfan Speed 1'15"4 Attelé
20/09/21 1 Trot 20 000€ 2 850m Laval Frisson d'Amour 1'14"8 Attelé
20/09/21 5 Trot 36 000€ 2 850m Laval Emily de Montfort 1'14"4 Attelé lire

Très vite en bonne position, a progressivement faibli pour finir.

01/10/21 7 Trot 18 000€ 2 850m Laval Indiana d'Aut 1'17"2 Attelé
01/10/21 D Trot 18 000€ 2 850m Laval Hunaka d'Occagnes Attelé
01/10/21 1 Trot 34 000€ 2 850m Laval Fandango la Nuit 1'16"8 Attelé
01/10/21 5 Trot 18 000€ 2 050m Laval Glasgow Ellis 1'14"7 Attelé
01/10/21 1 Trot 18 000€ 2 050m Laval Galaxie Djalmats 1'13"5 Attelé
01/10/21 D Trot 13 000€ 2 225m Laval Jewel Attelé
01/11/21 0 Trot 60 000€ 2 850m Laval Say That Again Attelé lire

Après avoir figuré en début de parcours, a marqué le pas dans le tournant final.

01/11/21 7 Trot 22 000€ 2 875m Laval Fidele Madrik 1'15"3 Attelé
01/11/21 9 Trot 30 000€ 2 850m Laval Ironie du Guelier 1'16"3 Attelé lire

N'a pu que figurer au sein du peloton.

12/11/21 D Trot 18 000€ 2 850m Laval Ivory Wind Attelé
12/11/21 2 Trot 16 000€ 2 850m Laval Hip Hop de Chenu 1'15"2 Attelé
12/11/21 D Trot 31 000€ 2 850m Laval Epson d'Ariane Attelé lire

A rapidement été sanctionné.

12/11/21 D Trot 20 000€ 2 850m Laval Galliano d'Eva Attelé
12/11/21 3 Trot 13 000€ 2 225m Laval Joker de Janeiro 1'17"0 Attelé
20/11/21 8 Trot 27 000€ 2 875m Laval Cadence Del Fretta 1'15"5 Attelé
20/11/21 D Trot 34 000€ 2 875m Laval Hope On Victory Attelé